TimeCST,TemperatureF,Dew PointF,Humidity,Sea Level PressureIn,VisibilityMPH,Wind Direction,Wind SpeedMPH,Gust SpeedMPH,PrecipitationIn,Events,Conditions,WindDirDegrees,DateUTC
12:00 AM,15.8,10.4,79,30.30,10.0,WNW,9.2,-,N/A,,Mostly Cloudy,300,2013-01-14 06:00:00
1:53 AM,15.1,10.9,84,30.38,10.0,WNW,9.2,-,N/A,,Clear,300,2013-01-14 07:53:00
2:53 AM,15.1,10.0,80,30.41,10.0,WNW,8.1,-,N/A,,Clear,300,2013-01-14 08:53:00
3:53 AM,15.1,10.0,80,30.41,10.0,WNW,9.2,-,N/A,,Clear,300,2013-01-14 09:53:00
4:53 AM,14.0,10.0,84,30.42,10.0,WNW,6.9,-,N/A,,Clear,300,2013-01-14 10:53:00
6:53 AM,14.0,10.0,84,30.45,10.0,NW,8.1,-,N/A,,Clear,320,2013-01-14 12:53:00
7:53 AM,15.1,10.0,80,30.45,10.0,NNW,8.1,-,N/A,,Clear,340,2013-01-14 13:53:00
8:53 AM,18.0,12.0,78,30.45,10.0,North,10.4,-,N/A,,Clear,360,2013-01-14 14:53:00
9:53 AM,19.9,14.0,78,30.46,10.0,NNE,6.9,-,N/A,,Clear,20,2013-01-14 15:53:00
10:53 AM,21.0,14.0,74,30.48,10.0,Variable,4.6,-,N/A,,Partly Cloudy,0,2013-01-14 16:53:00
11:53 AM,21.9,16.0,78,30.47,10.0,NW,4.6,-,N/A,,Partly Cloudy,320,2013-01-14 17:53:00
12:53 PM,21.9,16.0,78,30.45,10.0,NW,5.8,-,N/A,,Scattered Clouds,320,2013-01-14 18:53:00
1:17 PM,23.0,15.8,74,30.42,10.0,Calm,Calm,-,N/A,,Mostly Cloudy,0,2013-01-14 19:17:00
1:53 PM,21.9,16.0,78,30.49,10.0,WNW,3.5,-,N/A,,Overcast,290,2013-01-14 19:53:00
2:53 PM,24.1,17.1,75,30.50,10.0,Calm,Calm,-,N/A,,Overcast,0,2013-01-14 20:53:00
3:37 PM,24.8,15.8,69,30.45,10.0,NNW,3.5,-,N/A,,Scattered Clouds,340,2013-01-14 21:37:00
3:53 PM,25.0,17.1,72,30.48,10.0,North,4.6,-,N/A,,Scattered Clouds,10,2013-01-14 21:53:00
4:53 PM,21.9,16.0,78,30.47,10.0,North,3.5,-,N/A,,Clear,350,2013-01-14 22:53:00
5:53 PM,19.0,15.1,85,30.47,10.0,NNW,5.8,-,N/A,,Clear,340,2013-01-14 23:53:00
6:53 PM,18.0,14.0,84,30.46,10.0,NNW,5.8,-,N/A,,Clear,340,2013-01-15 00:53:00
7:53 PM,17.1,12.9,84,30.45,10.0,North,4.6,-,N/A,,Clear,350,2013-01-15 01:53:00
8:53 PM,17.1,12.9,84,30.44,10.0,North,4.6,-,N/A,,Clear,360,2013-01-15 02:53:00
9:53 PM,18.0,14.0,84,30.43,10.0,North,3.5,-,N/A,,Clear,10,2013-01-15 03:53:00
10:53 PM,17.1,12.9,84,30.44,10.0,Calm,Calm,-,N/A,,Clear,0,2013-01-15 04:53:00
11:53 PM,16.0,12.9,88,30.45,10.0,NNE,3.5,-,N/A,,Clear,30,2013-01-15 05:53:00